Wind_Speed
35 39 39 34 33 28 20 18 18 18 18 18 17 14 12 9 5 2 2 4 9 10 9 13 13 14 17 19 19 19 20 21
31 36 37 29 29 29 22 23 18 18 19 18 17 15 12 8 4 3 2 6 5 5 11 12 12 15 18 20 19 18 19 20
26 34 20 30 31 33 26 21 22 21 20 18 17 14 10 8 6 2 5 5 3 8 10 12 16 19 21 19 18 19 20 22
31 24 27 25 37 26 23 22 19 17 18 17 16 13 10 6 3 5 7 7 8 11 12 14 18 19 20 19 18 19 21 23
22 22 29 30 32 26 20 18 17 17 16 14 13 10 7 7 6 8 9 10 11 13 13 16 20 22 20 19 20 22 24 27
15 23 32 24 24 19 17 16 14 15 14 13 11 10 7 8 9 12 12 14 15 15 18 22 22 20 19 21 24 27 29 29
35 29 21 19 18 18 15 14 13 12 12 11 10 9 9 10 12 13 16 17 18 19 24 26 21 20 22 25 28 29 29 30
17 17 15 12 12 12 11 10 11 11 11 11 12 12 11 12 13 16 17 17 19 23 24 21 21 22 25 29 31 32 32 32
14 13 12 12 11 11 10 10 11 12 13 13 12 12 13 14 17 17 15 17 21 22 19 20 22 24 27 30 32 34 36 35
18 17 17 15 14 13 11 10 10 9 9 11 12 15 15 17 18 17 17 18 19 18 20 22 24 27 30 32 34 36 38 40
16 16 15 14 13 12 11 10 9 8 8 12 12 13 16 17 15 15 16 15 17 20 23 26 29 32 33 34 35 36 39 40
17 16 15 14 12 9 7 5 5 7 9 9 11 14 15 15 15 15 15 17 20 23 27 31 33 34 35 35 35 36 39 40
15 14 13 10 7 4 3 3 5 7 9 10 12 14 15 14 16 17 17 19 22 26 29 31 33 36 37 38 38 38 39 43
13 10 9 8 6 7 7 8 8 10 10 10 13 15 14 15 17 19 20 23 26 29 32 35 34 38 39 38 39 40 44 49
10 9 9 8 10 12 12 11 10 10 9 11 14 16 16 18 21 23 25 27 30 32 32 30 33 38 40 36 39 43 49 44
12 13 10 11 15 17 15 14 14 14 13 14 17 18 20 21 24 26 28 31 33 35 37 38 36 39 42 38 41 44 47 49
10 11 11 12 16 18 17 17 17 21 18 16 17 19 22 24 28 30 33 36 40 43 34 35 40 42 45 46 49 46 46 49
14 13 13 14 15 14 17 20 23 22 19 17 19 23 26 28 31 34 35 42 49 49 36 45 38 43 47 48 47 47 48 49
17 20 12 15 15 14 16 20 23 21 19 20 24 27 29 33 36 32 38 45 48 44 51 46 46 46 47 42 46 46 45 42
15 21 16 17 20 17 20 18 19 22 21 23 27 30 30 32 27 40 34 31 35 45 52 47 47 52 44 45 41 39 38 38
Wind_Direction
205 204 205 181 178 149 157 161 147 180 169 168 165 169 174 176 173 153 15 9 16 358 354 348 349 349 346 341 344 345 345 342
211 206 186 182 175 148 150 164 158 168 169 170 176 182 181 183 177 225 356 1 333 349 347 350 347 339 338 337 339 341 338 338
208 179 203 204 210 151 157 155 165 172 174 179 183 186 194 203 212 314 312 282 306 333 340 339 337 336 333 329 333 339 338 341
168 172 175 179 131 135 146 158 166 166 177 186 190 195 206 220 263 279 280 283 301 324 327 331 333 329 329 327 332 335 337 339
186 226 197 133 140 141 141 157 173 179 186 199 198 208 222 256 265 276 287 286 307 307 308 319 325 328 326 324 329 335 338 339
166 150 138 127 125 139 163 174 179 184 190 197 210 235 235 256 276 290 294 294 296 297 314 323 321 322 323 326 331 335 335 331
127 133 146 142 144 161 171 180 178 184 202 221 226 228 244 269 282 293 300 300 301 311 316 323 326 326 327 329 328 327 326 325
134 132 119 122 134 153 161 172 190 199 210 220 232 241 250 270 293 293 296 298 302 313 321 325 324 323 324 322 323 323 320 321
143 141 145 148 149 161 163 170 185 199 213 226 238 255 267 273 286 303 307 307 311 315 322 320 316 318 320 320 318 318 318 319
138 135 139 139 141 148 156 173 188 205 223 236 245 254 268 286 300 308 305 302 311 315 317 316 315 315 314 313 314 315 317 317
137 138 139 141 145 154 164 181 195 208 228 239 254 272 281 293 301 303 300 310 314 317 317 312 312 310 310 308 308 313 314 313
156 154 151 151 160 161 169 186 216 227 239 259 278 282 293 298 298 305 307 312 313 314 312 309 309 310 309 307 307 309 312 310
164 166 166 163 165 171 203 246 260 265 262 279 289 294 296 295 300 305 303 304 307 307 308 309 307 310 308 303 303 305 308 307
184 183 187 187 210 225 241 253 266 267 268 284 296 295 286 292 293 291 297 300 299 298 302 306 303 306 310 303 301 298 303 306
201 209 223 226 243 254 258 267 278 283 277 280 282 279 281 286 286 288 289 291 290 290 295 304 311 312 307 302 302 298 300 297
225 234 240 252 261 262 269 276 281 278 260 264 275 276 280 280 282 282 283 285 285 290 289 290 308 317 316 297 303 302 304 303
230 234 242 262 277 267 263 267 277 279 250 258 276 273 275 278 280 283 285 288 283 281 286 322 298 301 318 309 299 306 306 304
272 255 239 263 273 272 267 271 276 272 248 258 271 269 272 276 279 283 286 309 286 284 281 306 304 303 318 308 304 307 304 302
284 281 251 254 268 271 279 279 274 257 249 257 270 271 278 284 283 292 296 296 302 292 300 303 307 305 312 308 306 303 301 301
279 271 283 263 268 271 282 271 258 247 253 261 271 281 288 284 307 312 286 303 313 309 294 307 307 306 308 307 305 305 304 302
Height
3130 3132 3135 3133 3135 3145 3155 3159 3161 3162 3166 3169 3172 3174 3174 3174 3176 3178 3179 3179 3177 3177 3177 3176 3176 3175 3174 3174 3171 3170 3168 3166
3132 3130 3126 3128 3137 3143 3152 3159 3159 3163 3166 3169 3172 3173 3174 3175 3177 3179 3179 3178 3179 3178 3177 3176 3176 3175 3173 3171 3170 3169 3167 3165
3130 3122 3124 3131 3136 3144 3148 3154 3158 3161 3165 3168 3171 3173 3174 3175 3177 3178 3179 3180 3178 3177 3176 3175 3174 3173 3173 3170 3168 3167 3165 3161
3117 3118 3126 3132 3139 3144 3149 3153 3157 3161 3165 3168 3171 3173 3174 3175 3177 3178 3178 3178 3177 3176 3175 3174 3174 3173 3170 3167 3166 3165 3163 3160
3122 3124 3130 3135 3139 3143 3147 3154 3159 3162 3165 3169 3172 3173 3174 3175 3176 3176 3176 3176 3175 3174 3174 3172 3170 3169 3167 3164 3164 3162 3160 3156
3122 3126 3132 3138 3141 3146 3151 3155 3159 3163 3166 3168 3170 3172 3173 3174 3174 3174 3173 3174 3174 3173 3170 3167 3166 3164 3162 3160 3159 3158 3155 3153
3126 3130 3135 3140 3142 3145 3151 3156 3159 3162 3165 3167 3169 3170 3171 3172 3172 3173 3170 3170 3170 3167 3164 3162 3160 3158 3157 3155 3154 3154 3152 3150
3132 3134 3137 3141 3144 3147 3151 3155 3158 3161 3163 3165 3167 3169 3169 3170 3169 3170 3168 3166 3165 3163 3159 3157 3156 3157 3153 3152 3150 3149 3147 3145
3132 3134 3138 3141 3144 3147 3152 3155 3157 3159 3162 3164 3165 3166 3166 3167 3168 3165 3163 3162 3161 3159 3157 3155 3155 3154 3151 3149 3146 3145 3141 3140
3132 3135 3139 3141 3145 3148 3150 3153 3155 3158 3159 3161 3163 3164 3165 3164 3163 3161 3159 3158 3158 3156 3154 3153 3151 3150 3148 3145 3142 3139 3136 3133
3135 3138 3140 3142 3145 3148 3150 3152 3153 3154 3157 3159 3160 3161 3162 3161 3158 3157 3157 3155 3154 3152 3150 3150 3147 3146 3143 3141 3138 3135 3132 3129
3136 3138 3140 3142 3145 3147 3149 3150 3151 3154 3156 3156 3157 3158 3156 3155 3156 3154 3153 3152 3151 3149 3147 3146 3143 3140 3137 3135 3133 3131 3127 3124
3135 3138 3140 3142 3144 3146 3148 3149 3151 3151 3152 3153 3154 3154 3153 3152 3153 3150 3149 3149 3146 3145 3142 3140 3138 3135 3132 3130 3127 3125 3122 3120
3136 3138 3139 3141 3143 3145 3146 3148 3149 3149 3150 3150 3151 3150 3149 3148 3148 3146 3145 3144 3142 3140 3138 3136 3133 3129 3126 3122 3120 3119 3116 3111
3137 3139 3140 3140 3141 3142 3144 3145 3145 3145 3146 3146 3146 3146 3144 3144 3143 3142 3142 3139 3137 3135 3133 3130 3127 3124 3121 3118 3113 3109 3106 3102
3133 3134 3135 3135 3137 3138 3139 3140 3140 3141 3141 3141 3141 3141 3140 3140 3140 3138 3136 3134 3132 3130 3129 3125 3121 3118 3114 3110 3107 3102 3094 3088
3130 3131 3130 3131 3132 3133 3134 3135 3136 3137 3136 3137 3138 3138 3137 3135 3134 3132 3131 3130 3126 3123 3120 3117 3113 3109 3105 3100 3096 3091 3086 3082
3126 3126 3126 3127 3128 3128 3129 3131 3132 3131 3131 3132 3133 3132 3131 3129 3128 3127 3125 3122 3117 3114 3110 3107 3103 3099 3094 3090 3086 3081 3076 3072
3121 3121 3121 3124 3124 3124 3125 3126 3125 3126 3126 3126 3127 3127 3126 3125 3122 3120 3117 3114 3108 3106 3103 3098 3095 3090 3086 3081 3077 3073 3067 3064
3118 3118 3118 3118 3120 3120 3121 3120 3120 3121 3122 3123 3123 3122 3119 3117 3114 3110 3108 3105 3101 3097 3093 3089 3086 3081 3076 3071 3068 3064 3060 3055